Home > Weather > Vaasa > Past weeks

Flag for Finland Past Weather in Vaasa, Finland — Yesterday and Last 2 Weeks

Now
70 °F

Partly sunny.


Feels Like: 70 °F
Forecast: 60 / 70 °F
Wind: 12 mph from Southwest

Location: Vaasa Airport

Current Time: Jul 28, 2016 at 1:37:01 PM

Latest Report: Jul 28, 2016 at 1:20 PM


Visibility: N/A

Pressure: 29.86 "Hg

Humidity: 57%

Dew Point: 54 °F

Location of VaasaLocation

Past Weather in Vaasa — Graph

°F

Vaasa Temperature Yesterday

Maximum temperature yesterday: 72 °F (at 12:20 PM)
Minimum temperature yesterday: 59 °F (at 10:50 PM)
Average temperature yesterday: 66 °F

High & Low Weather Summary for the Past Weeks

 TemperatureHumidityPressure
High81 °F (Jul 26, 3:20 PM)100% (Jul 13, 11:20 PM)30.12 "Hg (Jul 13, 11:20 PM)
Low45 °F (Jul 20, 4:20 AM)35% (Jul 20, 7:20 PM)29.56 "Hg (Jul 13, 12:20 PM)
Average64 °F76%29.92 "Hg
* Reported Jul 13 12:20 PM — Jul 28 12:20 PM, Vaasa, Weather by CustomWeather, © 2016

Note: Actual official high and low records may vary slightly from our data, if they occured in-between our weather recording intervals... More about our weather records

Advertising

Vaasa Weather History for the Previous 24 Hours

Scroll right to see more
 ConditionsComfort  
Time TempWeatherWind HumidityBarometerVisibility
12:20 PM
Thu, Jul 28
70 °FBroken clouds.10 mph57%29.86 "HgN/A
11:50 AM70 °FPartly sunny.7 mph60%29.86 "HgN/A
11:20 AM72 °FBroken clouds.10 mph57%29.86 "HgN/A
10:50 AM72 °FScattered clouds.7 mph61%29.86 "HgN/A
10:20 AM70 °FPartly sunny.8 mph64%29.86 "HgN/A
9:50 AM68 °FSunny.9 mph78%29.86 "Hg10 mi
9:20 AM68 °FPassing clouds.7 mph78%29.86 "HgN/A
8:50 AM64 °FSunny.7 mph88%29.86 "Hg10 mi
8:20 AM63 °FSunny.7 mph88%29.86 "Hg10 mi
7:50 AM61 °FSunny.7 mph94%29.86 "Hg10 mi
7:20 AM61 °FSunny.6 mph94%29.86 "Hg10 mi
6:50 AM59 °FPassing clouds.6 mph94%29.86 "HgN/A
6:20 AM59 °FPassing clouds.5 mph94%29.86 "HgN/A
5:50 AM57 °FSunny.6 mph100%29.86 "Hg10 mi
5:20 AM57 °FClear.5 mph100%29.89 "Hg10 mi
4:50 AM57 °FClear.3 mph94%29.89 "Hg10 mi
4:20 AM57 °FClear.5 mph94%29.89 "Hg10 mi
3:50 AM57 °FClear.5 mph94%29.89 "Hg10 mi
3:20 AM57 °FClear.6 mph94%29.89 "Hg10 mi
2:50 AM57 °FClear.6 mph94%29.89 "Hg10 mi
2:20 AM57 °FClear.6 mph94%29.89 "Hg10 mi
1:50 AM57 °FClear.6 mph94%29.89 "Hg10 mi
1:20 AM57 °FClear.6 mph94%29.89 "Hg10 mi
12:50 AM57 °FClear.5 mph94%29.89 "Hg10 mi
12:20 AM57 °FClear.3 mph94%29.89 "Hg10 mi
11:50 PM
Wed, Jul 27
59 °FClear.6 mph88%29.89 "Hg10 mi
11:20 PM59 °FSunny.6 mph88%29.89 "Hg10 mi
10:50 PM59 °FSunny.5 mph88%29.89 "Hg10 mi
10:20 PM61 °FSunny.6 mph83%29.89 "Hg10 mi
9:50 PM61 °FSunny.5 mph88%29.89 "Hg10 mi
9:20 PM63 °FPassing clouds.5 mph77%29.89 "HgN/A
8:50 PM63 °FPassing clouds.6 mph77%29.89 "HgN/A
8:20 PM64 °FPassing clouds.9 mph73%29.89 "HgN/A
7:50 PM64 °FPassing clouds.9 mph73%29.89 "HgN/A
7:20 PM66 °FPassing clouds.9 mph68%29.89 "HgN/A
6:50 PM66 °FPassing clouds.8 mph64%29.89 "HgN/A
6:20 PM68 °FPassing clouds.9 mph64%29.89 "HgN/A
5:50 PM68 °FSunny.15 mph64%29.89 "Hg10 mi
5:20 PM68 °FPassing clouds.16 mph60%29.89 "HgN/A
4:50 PM70 °FPassing clouds.13 mph57%29.89 "HgN/A
4:20 PM68 °FScattered clouds.12 mph69%29.89 "HgN/A
3:50 PM70 °FPassing clouds.12 mph64%29.89 "HgN/A
3:20 PM70 °FPassing clouds.12 mph64%29.89 "HgN/A
2:50 PM70 °FPassing clouds.17 mph64%29.89 "HgN/A
2:20 PM70 °FPassing clouds.17 mph60%29.89 "HgN/A
1:50 PM72 °FScattered clouds.17 mph57%29.89 "HgN/A
1:20 PM72 °FPassing clouds.17 mph53%29.89 "HgN/A
Weather by CustomWeather, © 2016

See weather overviewHow to use our weather pages